Theta_e
291 290 290 289 289 289 288 288 288 287 287 287 286 286 285 286 286 286 286 285 285 285 285 285 285 285 286 286 286 286 286 285 285 285 285 285 285 285 285 284 285 284
290 290 289 289 289 289 288 288 287 287 286 286 286 285 286 286 286 286 286 286 286 285 285 285 285 285 284 285 285 284 284 284 283 285 283 284 284 284 283 284 284 284
289 289 289 288 287 287 287 287 287 286 286 286 286 286 285 286 285 285 285 285 285 285 284 285 284 284 283 283 283 284 283 283 283 283 283 283 283 283 283 283 283 283
289 288 288 287 287 286 286 286 286 286 286 285 285 285 285 285 285 285 284 284 284 284 283 283 283 283 283 283 283 283 283 283 283 282 282 283 283 283 282 282 282 282
288 287 287 287 287 287 287 286 285 285 285 284 285 285 284 284 284 284 283 283 283 282 283 282 282 282 282 282 282 282 282 282 282 281 281 281 282 282 281 281 281 281
287 287 287 287 287 286 286 285 285 285 284 284 284 284 283 284 283 282 282 282 282 281 281 281 281 281 281 281 281 281 280 281 280 280 279 280 280 281 281 281 280 279
286 286 286 286 286 286 285 285 284 284 284 284 283 283 283 282 282 282 281 281 281 281 280 280 280 280 280 280 280 279 279 279 279 279 278 278 279 279 280 279 279 278
286 286 285 285 285 284 284 284 283 283 283 283 282 282 282 281 281 281 280 280 280 279 280 279 279 279 279 278 278 278 277 279 279 277 277 277 278 278 278 279 278 277
285 285 285 284 284 283 282 282 282 282 282 281 281 281 281 280 280 280 279 279 279 279 279 278 278 277 278 277 277 277 276 277 278 277 277 277 277 277 277 277 277 277
284 284 284 283 282 282 281 281 281 281 281 280 280 280 279 279 279 278 278 278 278 278 278 277 277 277 277 277 276 276 276 276 276 276 277 277 276 276 277 276 276 276
283 283 283 282 282 281 281 280 280 280 279 279 279 279 279 278 278 278 277 278 277 277 276 276 276 276 276 276 276 276 275 275 276 276 276 277 276 276 277 276 276 276
282 282 282 282 282 281 280 280 279 279 278 278 278 278 278 278 277 277 277 276 276 276 276 275 276 275 275 275 275 275 275 276 276 276 276 276 276 276 276 276 276 276
282 282 282 282 281 280 280 279 279 278 278 277 278 277 277 277 276 276 276 275 275 275 275 275 274 275 275 275 274 275 275 276 276 276 276 276 276 276 276 276 276 276
283 283 283 282 281 280 279 278 278 277 277 277 277 276 276 276 275 275 275 275 275 274 275 274 274 274 274 274 274 275 276 276 275 275 275 275 276 276 276 276 276 276
283 283 282 281 280 279 278 277 277 277 276 276 276 276 276 275 275 274 274 274 274 274 274 274 273 273 274 273 274 274 275 275 275 275 275 275 275 275 276 276 276 276
283 282 281 280 279 278 277 277 276 276 275 275 275 275 274 274 274 274 273 274 273 274 274 273 273 274 273 272 274 274 275 275 275 275 275 275 274 274 274 275 275 275
282 281 280 279 278 278 277 276 276 275 274 274 274 273 273 273 273 273 273 273 273 273 273 273 273 273 273 273 275 276 275 275 274 274 275 274 274 274 273 274 275 275
281 280 279 279 278 277 276 275 275 274 273 273 273 272 272 272 272 273 273 273 272 272 272 272 273 273 273 274 274 275 276 275 275 274 274 274 274 274 274 274 273 273
281 280 279 278 277 276 275 274 273 272 272 272 271 272 272 271 272 272 271 272 271 271 271 272 272 273 273 274 274 275 276 276 274 274 274 274 274 274 274 273 273 272
281 279 279 277 276 275 274 272 272 271 272 272 272 271 271 271 271 271 271 271 271 271 271 271 271 272 273 273 274 275 275 276 274 274 274 274 274 273 273 272 272 272
281 279 278 277 275 274 273 272 271 271 272 271 271 271 271 270 270 269 270 270 269 269 269 269 270 272 272 273 274 274 275 275 274 274 273 273 273 272 272 272 272 272
280 279 278 276 274 273 272 272 271 271 270 271 271 271 271 271 270 270 269 268 268 268 267 268 269 272 272 273 273 274 275 274 273 272 272 272 272 272 272 272 272 272
280 279 277 275 274 272 272 272 271 271 270 271 270 271 270 269 269 268 268 268 267 266 266 267 267 270 271 272 273 274 274 272 272 271 271 271 271 272 272 272 272 273
280 279 277 275 274 272 272 272 272 271 270 270 269 270 269 269 268 267 267 267 266 265 266 265 266 268 270 271 272 273 273 271 271 271 271 271 271 272 272 272 273 274
279 278 277 275 274 273 272 272 271 271 270 269 269 270 269 268 267 267 266 266 266 265 266 265 265 266 269 271 272 273 272 272 271 271 270 270 271 271 272 272 273 274
279 278 277 275 274 273 272 272 271 270 269 268 268 268 268 268 266 266 265 265 265 264 263 264 264 265 266 270 271 272 273 272 272 271 270 270 271 271 272 273 274 274
Wind_Speed
7 7 7 7 7 6 7 7 6 7 6 6 5 5 5 4 5 5 5 5 5 4 4 4 4 4 4 4 4 3 3 3 3 3 4 4 3 4 4 5 5 4
7 7 7 7 7 6 6 7 7 7 7 6 5 5 4 3 3 3 3 3 3 3 3 3 3 3 4 3 3 3 3 3 3 3 3 3 3 4 4 5 4 5
7 7 7 8 7 8 8 7 6 6 6 5 5 4 4 3 3 3 3 3 3 3 4 3 4 4 4 4 4 3 3 3 3 4 4 3 3 3 4 4 4 4
7 7 8 8 8 8 7 6 6 5 5 5 5 4 3 2 3 3 3 3 3 2 3 3 3 4 4 4 4 3 3 2 2 4 4 3 2 2 4 4 4 4
8 8 7 7 7 7 6 6 6 5 6 5 5 4 3 3 3 2 2 2 2 2 2 2 3 3 4 4 4 3 3 2 2 3 4 3 2 2 3 3 4 5
7 7 7 7 7 7 6 6 6 6 5 5 5 4 3 3 3 3 2 2 2 2 2 2 3 2 3 3 3 2 3 2 3 3 3 3 3 3 2 3 4 5
8 7 7 6 7 7 7 6 6 5 5 5 4 4 3 3 3 2 2 2 1 2 2 2 2 2 2 3 2 2 3 2 3 3 4 3 3 4 3 4 4 5
8 7 6 6 7 6 7 6 5 5 5 4 5 4 3 3 2 2 1 1 0 0 1 1 1 2 2 2 2 3 3 2 2 4 4 4 4 4 4 3 4 5
7 7 7 7 7 7 7 6 6 5 4 4 4 4 3 2 2 1 1 1 1 0 0 1 1 2 2 2 2 3 3 3 3 3 4 4 4 4 5 5 5 5
7 7 8 7 7 6 7 6 6 5 4 4 4 3 3 3 2 1 1 1 1 1 1 1 1 2 2 2 2 2 3 3 3 4 4 4 4 5 5 5 5 5
8 7 7 7 7 6 7 6 5 5 4 4 4 4 3 3 3 3 2 2 1 1 1 1 1 2 2 2 2 2 3 3 4 3 4 4 4 4 5 5 5 5
8 7 7 8 7 7 7 6 5 5 5 4 4 4 4 3 3 2 2 1 1 1 1 1 1 2 2 2 2 2 3 3 3 4 4 4 5 5 5 5 5 6
8 8 8 8 7 7 6 5 5 5 5 5 4 4 4 4 3 3 2 2 1 1 1 1 2 2 2 2 2 3 3 3 3 4 5 5 5 5 5 5 6 6
9 8 8 7 7 7 6 6 5 5 5 4 4 4 4 4 4 4 3 2 1 1 1 1 2 2 2 2 2 2 3 3 4 5 5 5 6 6 6 6 6 6
8 7 7 7 7 7 7 6 6 5 5 4 4 4 3 4 3 3 3 2 2 2 2 2 2 2 1 1 2 3 3 4 4 5 6 6 6 6 6 6 6 6
8 7 7 7 7 7 7 6 6 5 5 5 4 4 4 4 4 3 3 3 2 3 2 2 2 2 2 1 3 3 4 4 5 5 6 6 7 7 7 7 6 6
9 8 8 8 7 7 5 7 6 5 4 3 3 3 5 4 4 4 4 3 3 2 3 3 3 2 3 4 5 6 5 5 5 5 6 6 7 7 7 7 6 6
9 9 8 8 6 5 5 5 4 4 4 4 4 4 4 3 4 5 4 3 3 3 3 4 3 4 5 5 6 6 6 5 5 6 5 6 7 7 7 7 7 7
10 7 7 6 5 5 5 5 5 4 4 5 5 4 4 4 5 5 4 4 4 4 4 4 4 5 6 6 7 7 7 7 5 6 6 6 7 7 8 7 6 6
9 8 7 6 5 5 5 5 5 5 5 4 4 4 4 4 3 4 4 4 4 4 4 4 5 5 6 7 7 8 8 7 6 6 7 7 8 8 7 7 7 7
9 6 7 6 6 6 6 6 6 5 6 5 5 5 5 5 4 4 4 3 3 3 4 4 4 6 7 8 8 8 8 7 6 6 6 6 7 8 8 8 8 7
8 7 8 6 7 6 6 7 6 6 6 5 5 4 4 3 3 3 4 4 4 3 3 5 5 7 8 8 8 8 8 5 5 6 6 6 7 7 8 8 8 8
9 11 11 10 7 7 7 7 7 7 6 5 5 5 5 4 4 3 3 4 4 4 4 5 4 6 7 7 8 8 6 5 5 5 6 7 7 8 8 8 8 9
13 14 13 12 11 12 11 7 6 5 6 5 6 5 5 4 4 3 3 3 4 5 5 4 4 5 7 8 8 9 7 5 5 6 7 7 7 7 7 8 9 14
13 13 14 13 14 13 11 10 8 7 6 5 4 4 3 4 3 3 3 3 4 5 7 6 5 6 8 9 9 9 7 5 5 6 6 7 6 7 6 7 8 9
12 13 13 14 14 12 9 8 5 5 6 6 4 3 4 3 4 3 4 4 3 4 5 6 5 5 5 9 9 9 10 6 5 6 7 7 6 7 7 7 7 8
Wind_Direction
107 111 109 105 99 96 96 96 94 96 91 88 88 82 74 67 56 53 56 54 45 43 36 29 23 18 6 16 4 359 22 16 7 16 351 0 357 4 356 354 344 348
107 105 103 105 102 99 93 91 94 93 93 92 95 98 93 90 79 69 56 61 64 47 36 26 18 18 7 6 355 347 9 9 3 5 339 348 351 354 356 340 336 342
113 113 112 107 106 103 100 100 100 99 100 103 104 99 101 92 76 65 54 40 45 44 33 24 15 16 9 360 344 343 10 348 4 354 338 335 348 337 343 328 336 329
116 112 109 109 112 114 113 112 112 116 122 112 98 100 101 96 86 77 72 48 43 38 36 21 11 10 357 347 339 342 348 336 11 342 328 330 329 346 329 330 321 318
125 120 120 119 119 119 120 121 117 111 109 114 117 108 101 93 88 82 67 55 54 30 27 12 10 3 350 343 331 335 336 336 17 347 329 321 325 349 326 323 322 319
129 128 126 124 127 129 124 120 117 116 115 110 103 100 98 94 87 75 60 47 36 31 8 4 4 351 338 328 315 345 334 351 349 331 321 315 335 342 327 324 321 321
139 135 130 130 132 128 122 119 116 114 109 108 109 99 101 99 89 79 62 53 34 17 16 344 355 338 328 326 318 338 331 350 323 325 328 323 333 327 332 333 323 316
144 139 139 139 137 131 123 123 121 113 117 118 109 103 97 90 98 92 75 52 24 353 344 330 322 314 311 320 328 325 329 335 321 329 324 323 329 323 331 326 322 313
146 147 147 148 142 135 130 127 120 117 116 123 118 118 121 124 120 142 127 185 225 272 267 296 306 301 308 310 320 325 321 326 324 325 322 321 323 324 323 322 319 317
155 153 156 154 145 135 133 127 126 123 125 126 135 143 150 137 141 166 183 188 215 215 231 262 283 300 296 311 313 323 326 320 323 322 318 313 310 312 317 320 315 314
161 162 164 157 144 136 133 131 132 136 138 148 153 156 157 159 166 166 190 192 191 221 269 271 304 305 311 317 325 324 321 315 311 313 306 306 305 303 304 303 306 305
164 169 169 159 145 137 139 144 146 147 146 157 164 161 163 160 161 171 162 198 184 234 265 289 303 318 315 309 317 319 311 306 305 308 302 300 299 296 295 301 299 299
170 175 169 158 147 143 146 151 155 152 158 160 162 168 169 168 162 164 176 167 216 213 278 294 302 295 291 302 305 306 304 300 307 305 302 298 290 292 291 289 289 291
176 174 166 155 147 145 149 156 154 155 160 157 160 176 171 171 171 168 173 171 205 235 252 270 274 270 274 292 302 313 314 314 313 300 295 293 290 290 290 287 285 288
172 166 159 147 145 146 153 158 159 160 159 159 176 179 170 170 165 165 169 184 198 221 238 249 252 249 234 356 330 321 317 307 298 293 292 292 292 292 292 287 285 283
164 158 156 149 153 155 160 160 161 162 162 173 181 183 176 171 170 169 179 188 199 219 231 232 238 234 138 235 270 280 293 290 288 284 287 289 292 293 290 287 283 284
161 160 157 162 163 159 159 157 163 162 168 177 184 183 181 176 177 177 182 186 199 218 235 237 229 218 201 256 270 277 280 280 280 283 284 284 283 284 286 288 286 290
161 157 158 163 158 163 153 158 155 158 170 180 188 187 190 180 188 182 176 184 198 223 235 237 241 223 230 254 267 271 272 274 276 279 279 276 277 280 283 287 290 291
160 157 157 156 162 153 151 147 150 161 177 185 196 192 182 185 191 175 182 186 200 222 234 242 241 233 232 252 263 268 274 276 272 272 273 272 273 276 280 282 283 289
157 159 159 158 149 150 150 155 161 179 181 188 188 186 190 189 183 181 184 191 202 218 234 243 247 234 238 254 262 270 274 273 270 270 271 271 270 273 277 278 280 281
165 152 160 149 147 153 158 167 170 174 179 188 186 191 189 187 183 186 192 192 201 218 236 247 247 238 243 255 263 272 273 277 272 269 266 265 267 270 272 274 276 277
155 165 162 153 156 161 167 174 171 179 178 188 187 191 185 180 185 179 187 192 204 209 229 247 249 240 242 252 264 271 279 279 269 262 261 262 265 261 266 268 272 275
163 170 166 159 157 163 175 176 168 174 180 183 181 188 181 186 186 188 193 192 201 208 220 246 255 252 249 254 261 270 280 272 263 259 256 256 261 260 263 264 268 269
183 185 182 178 168 179 170 173 158 164 180 179 180 185 183 181 178 183 200 203 204 209 216 230 254 257 255 258 259 263 259 257 259 258 261 259 265 265 263 263 266 270
183 186 187 184 188 180 170 177 170 171 167 168 184 180 173 164 179 189 201 210 211 214 223 229 248 262 262 261 258 255 253 252 252 258 261 259 264 265 266 269 272 278
188 188 191 190 193 179 171 168 139 151 162 170 175 171 170 175 176 194 195 221 210 205 218 228 235 246 249 252 248 248 246 242 249 252 258 264 265 270 278 279 279 281